Date,TemperatureHighF,TemperatureAvgF,TemperatureLowF,DewpointHighF,DewpointAvgF,DewpointLowF,HumidityHigh,HumidityAvg,HumidityLow,PressureMaxIn,PressureMinIn,WindSpeedMaxMPH,WindSpeedAvgMPH,GustSpeedMaxMPH,PrecipitationSumIn
2012-1-1,70,62,54,-100,-100,-100,0,0,100,30.33,30.16,15,0,20,0.00
2012-1-2,64,55,48,-100,-100,-100,0,0,100,30.27,30.14,22,7,28,0.00
2012-1-3,47,39,33,-100,-100,-100,0,0,100,30.46,30.18,26,13,38,0.00
2012-1-4,53,40,31,-100,-100,-100,0,0,100,30.51,30.35,11,6,14,0.00
2012-1-5,66,53,42,-100,-100,-100,0,0,100,30.36,30.18,19,3,26,0.00
2012-1-6,69,56,49,-100,-100,-100,0,0,100,30.29,30.16,9,5,12,0.00
2012-1-7,70,58,51,-100,-100,-100,0,0,100,30.26,30.16,9,5,11,0.00
2012-1-8,68,60,53,-100,-100,-100,0,0,100,30.32,30.22,8,-38,11,0.00
2012-1-9,71,62,56,-100,-100,-100,0,0,100,30.31,30.16,11,4,13,0.00
2012-1-10,72,63,55,-100,-100,-100,0,0,100,30.17,29.99,8,-3,12,0.00
2012-1-11,74,65,60,-100,-100,-100,0,0,100,30.01,29.74,25,5,33,0.00
2012-1-12,72,63,53,-100,-100,-100,0,0,100,29.96,29.84,20,12,26,0.00
2012-1-13,66,50,42,-100,-100,-100,0,0,100,30.28,29.92,21,12,30,0.00
2012-1-14,55,46,37,-100,-100,-100,0,0,100,30.43,30.28,17,10,22,0.00
2012-1-15,61,52,44,-100,-100,-100,0,0,100,30.54,30.37,16,10,21,0.00
2012-1-16,65,59,50,-100,-100,-100,0,0,100,30.58,30.42,16,-7,20,0.00
2012-1-17,72,62,55,-100,-100,-100,0,0,100,30.43,30.17,15,6,19,0.00
2012-1-18,63,59,52,-100,-100,-100,0,0,100,30.19,30.03,17,8,21,0.00
2012-1-19,59,51,44,-100,-100,-100,0,0,100,30.27,30.11,9,5,13,0.00
2012-1-20,71,60,49,-100,-100,-100,0,0,100,30.26,30.16,14,0,20,0.00
2012-1-21,71,64,56,-100,-100,-100,0,0,100,30.20,30.08,16,7,19,0.00
2012-1-22,65,62,60,-100,-100,-100,0,0,100,30.25,30.09,12,7,18,0.00
2012-1-23,70,64,60,-100,-100,-100,0,0,100,30.24,30.11,11,6,15,0.00
2012-1-24,71,64,62,-100,-100,-100,0,0,100,30.26,30.14,10,-10,11,0.00
2012-1-25,65,63,60,-100,-100,-100,0,0,100,30.29,30.18,10,-9,11,0.00
2012-1-26,69,65,63,-100,-100,-100,0,0,100,30.19,30.16,9,-28,14,0.00
2012-1-27,70,63,57,-100,-100,-100,0,0,100,30.12,29.95,20,-26,27,0.00
2012-1-28,67,58,49,-100,-100,-100,0,0,100,30.27,30.11,13,-2,18,0.00
2012-1-29,57,54,47,-100,-100,-100,0,0,100,30.42,30.25,17,9,21,0.00
2012-1-30,56,50,47,-100,-100,-100,0,0,100,30.49,30.40,9,6,12,0.00
2012-1-31,62,62,61,-100,-100,-100,0,0,100,30.47,30.35,14,10,16,0.00
2012-2-1,71,65,60,-100,-100,-100,0,0,100,30.37,30.21,12,-38,17,0.00
2012-2-2,73,65,61,-100,-100,-100,0,0,100,30.26,30.17,16,6,20,0.00
2012-2-3,65,63,59,-100,-100,-100,0,0,100,30.36,30.24,20,-2,24,0.00
2012-2-4,71,66,62,-100,-100,-100,0,0,100,30.32,30.16,12,-2,19,0.00
2012-2-5,77,68,62,-100,-100,-100,0,0,100,30.16,30.04,11,-31,13,0.00
2012-2-6,68,61,58,-100,-100,-100,0,0,100,30.21,30.09,18,-6,23,0.00
2012-2-7,58,55,57,-100,-100,-100,0,0,100,30.17,30.12,18,-38,20,0.00
2012-2-8,61,57,52,-100,-100,-100,0,0,100,30.22,30.11,15,0,17,0.00
2012-2-9,63,57,49,-100,-100,-100,0,0,100,30.27,30.17,17,10,21,0.00
2012-2-10,63,61,59,-100,-100,-100,0,0,100,30.22,29.96,15,0,21,0.00
2012-2-11,59,53,39,-100,-100,-100,0,0,100,30.24,29.90,26,14,35,0.00
2012-2-12,46,31,29,-100,-100,-100,0,0,100,30.43,30.23,23,9,31,0.00
2012-2-13,53,45,33,-100,-100,-100,0,0,100,30.37,30.20,11,6,14,0.00
2012-2-14,66,59,50,-100,-100,-100,0,0,100,30.20,30.09,11,-2,17,0.00
2012-2-15,63,60,59,-100,-100,-100,0,0,100,30.26,30.13,16,-23,19,0.00
2012-2-16,74,66,59,-100,-100,-100,0,0,100,30.25,30.08,15,-1,19,0.00
2012-2-17,66,62,59,-100,-100,-100,0,0,100,30.14,30.05,16,7,19,0.00
2012-2-18,63,61,59,-100,-100,-100,0,0,100,30.09,29.91,11,-30,13,0.00
2012-2-19,79,69,61,-100,-100,-100,0,0,100,29.93,29.69,35,7,45,0.00
2012-2-20,61,53,49,-100,-100,-100,0,0,100,30.31,29.93,19,14,24,0.00
2012-2-21,63,59,55,-100,-100,-100,0,0,100,30.33,30.16,15,6,19,0.00
2012-2-22,73,64,56,-100,-100,-100,0,0,100,30.16,29.88,18,7,23,0.00
2012-2-23,80,72,65,-100,-100,-100,0,0,100,29.93,29.84,24,14,31,0.00
2012-2-24,82,73,61,-100,-100,-100,0,0,100,30.07,29.87,30,17,39,0.00
2012-2-25,61,56,52,-100,-100,-100,0,0,100,30.37,30.07,18,10,25,0.00
2012-2-26,59,56,51,-100,-100,-100,0,0,100,30.45,30.34,19,11,22,0.00
2012-2-27,71,64,59,-100,-100,-100,0,0,100,30.39,30.32,15,-29,17,0.00
2012-2-28,64,62,60,-100,-100,-100,0,0,100,30.39,30.30,13,-21,16,0.00
2012-2-29,77,67,60,-100,-100,-100,0,0,100,30.31,30.12,13,-9,19,0.00
2012-3-1,77,71,66,-100,-100,-100,0,0,100,30.14,30.00,20,11,25,0.00
2012-3-2,79,70,65,-100,-100,-100,0,0,100,30.09,29.94,15,8,18,0.00
2012-3-3,83,74,65,-100,-100,-100,0,0,100,29.95,29.72,30,14,43,0.00
2012-3-4,75,57,49,-100,-100,-100,0,0,100,30.26,29.70,29,7,36,0.00
2012-3-5,74,61,49,-100,-100,-100,0,0,100,30.44,30.25,21,11,28,0.00
2012-3-6,67,64,60,-100,-100,-100,0,0,100,30.57,30.43,23,16,27,0.00
2012-3-7,70,67,65,-100,-100,-100,0,0,100,30.54,30.40,15,10,21,0.00
2012-3-8,73,68,63,-100,-100,-100,0,0,100,30.40,30.25,12,6,19,0.00
2012-3-9,79,69,64,-100,-100,-100,0,0,100,30.27,30.14,21,8,28,0.00
2012-3-10,64,62,60,-100,-100,-100,0,0,100,30.38,30.22,28,21,34,0.00
2012-3-11,70,67,63,-100,-100,-100,0,0,100,30.45,30.34,16,11,20,0.00
2012-3-12,72,68,65,-100,-100,-100,0,0,100,30.42,30.32,13,7,17,0.00
2012-3-13,73,68,63,-100,-100,-100,0,0,100,30.35,30.25,13,-58,17,0.00
2012-3-14,75,68,63,-100,-100,-100,0,0,100,30.32,30.23,12,-31,16,0.00
2012-3-15,70,67,63,-100,-100,-100,0,0,100,30.36,30.25,12,-78,15,0.00
2012-3-16,75,69,64,-100,-100,-100,0,0,100,30.33,30.21,12,-16,17,0.00
2012-3-17,76,69,64,-100,-100,-100,0,0,100,30.31,30.21,14,-2,18,0.00
2012-3-18,74,69,64,-100,-100,-100,0,0,100,30.34,30.24,11,-37,16,0.00
2012-3-19,74,69,64,-100,-100,-100,0,0,100,30.28,30.18,10,-9,15,0.00
2012-3-20,74,70,66,-100,-100,-100,0,0,100,30.24,30.14,12,-55,15,0.00
2012-3-21,74,71,69,-100,-100,-100,0,0,100,30.26,30.16,15,8,23,0.00
2012-3-22,76,72,69,-100,-100,-100,0,0,100,30.27,30.16,14,-1,17,0.00
2012-3-23,78,72,67,-100,-100,-100,0,0,100,30.20,30.04,17,-1,21,0.00
2012-3-24,77,69,65,-100,-100,-100,0,0,100,30.07,29.91,22,7,31,0.00
2012-3-25,75,69,65,-100,-100,-100,0,0,100,29.93,29.83,25,12,30,0.00
2012-3-26,71,66,58,-100,-100,-100,0,0,100,30.09,29.92,18,8,24,0.00
2012-3-27,71,66,61,-100,-100,-100,0,0,100,30.27,30.08,21,10,25,0.00
2012-3-28,75,69,62,-100,-100,-100,0,0,100,30.28,30.12,13,6,19,0.00
2012-3-29,81,71,65,-100,-100,-100,0,0,100,30.13,30.00,15,7,18,0.00
2012-3-30,76,71,63,-100,-100,-100,0,0,100,30.11,30.00,12,-2,17,0.00
2012-3-31,73,68,65,-100,-100,-100,0,0,100,30.03,29.85,16,7,21,0.00
2012-4-1,81,71,65,-100,-100,-100,0,0,100,29.96,29.87,14,8,18,0.00
2012-4-2,87,75,68,-100,-100,-100,0,0,100,29.95,29.86,16,9,19,0.00
2012-4-3,82,74,68,-100,-100,-100,0,0,100,30.02,29.92,25,8,31,0.00
2012-4-4,85,75,67,-100,-100,-100,0,0,100,30.01,29.82,18,8,23,0.00
2012-4-5,85,75,68,-100,-100,-100,0,0,100,29.86,29.73,24,9,32,0.00
2012-4-6,73,67,61,-100,-100,-100,0,0,100,30.11,29.74,30,16,34,0.00
2012-4-7,67,65,62,-100,-100,-100,0,0,100,30.27,30.10,26,18,32,0.00
2012-4-8,71,66,60,-100,-100,-100,0,0,100,30.28,30.14,11,6,17,0.00
2012-4-9,73,67,62,-100,-100,-100,0,0,100,30.16,30.04,13,8,15,0.00
2012-4-10,74,68,62,-100,-100,-100,0,0,100,30.14,30.01,14,7,18,0.00
2012-4-11,73,68,62,-100,-100,-100,0,0,100,30.12,30.00,16,0,21,0.00
2012-4-12,69,65,61,-100,-100,-100,0,0,100,30.22,30.06,25,16,30,0.00
2012-4-13,70,68,65,-100,-100,-100,0,0,100,30.27,30.14,24,17,28,0.00
2012-4-14,75,72,68,-100,-100,-100,0,0,100,30.33,30.23,20,10,26,0.00
2012-4-15,76,72,69,-100,-100,-100,0,0,100,30.31,30.24,15,8,20,0.00
2012-4-16,77,72,65,-100,-100,-100,0,0,100,30.30,30.21,15,7,19,0.00
2012-4-17,79,70,67,-100,-100,-100,0,0,100,30.26,30.14,15,-32,21,0.00
2012-4-18,79,73,67,-100,-100,-100,0,0,100,30.16,30.02,15,8,20,0.00
2012-4-19,75,72,68,-100,-100,-100,0,0,100,30.06,29.95,17,-2,23,0.00
2012-4-20,77,73,70,-100,-100,-100,0,0,100,29.98,29.88,13,0,17,0.00
2012-4-21,75,72,67,-100,-100,-100,0,0,100,29.90,29.67,14,7,19,0.00
2012-4-22,74,69,65,-100,-100,-100,0,0,100,29.74,29.50,21,12,28,0.00
2012-4-23,67,61,54,-100,-100,-100,0,0,100,29.94,29.74,25,16,33,0.00
2012-4-24,71,61,50,-100,-100,-100,0,0,100,30.05,29.94,21,12,26,0.00
2012-4-25,81,69,59,-100,-100,-100,0,0,100,30.16,30.03,18,11,22,0.00
2012-4-26,86,74,61,-100,-100,-100,0,0,100,30.17,30.04,18,12,22,0.00
2012-4-27,80,72,64,-100,-100,-100,0,0,100,30.19,30.08,13,9,19,0.00
2012-4-28,78,72,65,-100,-100,-100,0,0,100,30.19,30.11,13,7,19,0.00
2012-4-29,79,74,70,-100,-100,-100,0,0,100,30.20,30.14,13,6,17,0.00
2012-4-30,77,74,72,-100,-100,-100,0,0,100,30.24,30.15,15,7,17,0.00
2012-5-1,79,76,73,-100,-100,-100,0,0,100,30.22,30.14,15,8,20,0.00
2012-5-2,79,76,72,-100,-100,-100,0,0,100,30.20,30.13,15,8,21,0.00
2012-5-3,79,76,71,-100,-100,-100,0,0,100,30.21,30.13,15,0,19,0.00
2012-5-4,80,75,70,-100,-100,-100,0,0,100,30.17,30.06,14,6,18,0.00
2012-5-5,86,78,71,-100,-100,-100,0,0,100,30.07,29.94,12,8,18,0.00
2012-5-6,89,77,73,-100,-100,-100,0,0,100,30.02,29.93,21,10,24,0.00
2012-5-7,76,75,73,-100,-100,-100,0,0,100,30.01,29.95,18,12,21,0.00
2012-5-8,78,75,72,-100,-100,-100,0,0,100,29.99,29.90,12,5,15,0.00
2012-5-9,86,77,71,-100,-100,-100,0,0,100,29.95,29.74,22,7,30,0.00
2012-5-10,75,70,64,-100,-100,-100,0,0,100,29.99,29.83,15,10,19,0.00
2012-5-11,79,73,67,-100,-100,-100,0,0,100,30.21,29.99,15,8,21,0.00
2012-5-12,79,76,74,-100,-100,-100,0,0,100,30.32,30.20,17,10,23,0.00
2012-5-13,78,75,74,-100,-100,-100,0,0,100,30.24,30.11,14,9,21,0.00
2012-5-14,81,74,69,-100,-100,-100,0,0,100,30.13,29.98,19,7,32,0.00
2012-5-15,79,74,69,-100,-100,-100,0,0,100,30.07,29.99,15,6,20,0.00
2012-5-16,78,74,71,-100,-100,-100,0,0,100,30.07,29.98,13,8,20,0.00
2012-5-17,80,73,65,-100,-100,-100,0,0,100,30.01,29.91,27,-23,39,0.00
2012-5-18,75,71,66,-100,-100,-100,0,0,100,30.05,29.94,20,11,23,0.00
2012-5-19,75,73,69,-100,-100,-100,0,0,100,30.09,30.01,19,15,23,0.00
2012-5-20,75,69,63,-100,-100,-100,0,0,100,30.10,29.99,20,10,28,0.00
2012-5-21,77,72,65,-100,-100,-100,0,0,100,30.06,29.97,16,9,18,0.00
2012-5-22,85,76,69,-100,-100,-100,0,0,100,30.01,29.89,13,7,21,0.00
2012-5-23,84,77,69,-100,-100,-100,0,0,100,29.98,29.91,14,8,19,0.00
2012-5-24,80,78,74,-100,-100,-100,0,0,100,30.03,29.95,16,0,21,0.00
2012-5-25,79,77,74,-100,-100,-100,0,0,100,30.14,30.00,17,8,20,0.00
2012-5-26,85,78,71,-100,-100,-100,0,0,100,30.14,30.03,19,-6,24,0.00
2012-5-27,79,76,72,-100,-100,-100,0,0,100,30.04,29.49,50,21,64,0.00
2012-5-28,84,76,72,-100,-100,-100,0,0,100,29.96,29.45,39,17,50,0.00
2012-5-29,80,75,72,-100,-100,-100,0,0,100,29.95,29.81,20,10,29,0.00
2012-5-30,83,78,76,-100,-100,-100,0,0,100,29.92,29.82,16,9,21,0.00
2012-5-31,84,77,71,-100,-100,-100,0,0,100,29.96,29.87,22,6,32,0.00
2012-6-1,82,76,72,-100,-100,-100,0,0,100,29.98,29.86,18,9,22,0.00
2012-6-2,87,79,73,-100,-100,-100,0,0,100,30.01,29.88,20,10,26,0.00
2012-6-3,83,76,68,-100,-100,-100,0,0,100,30.11,29.98,13,7,16,0.00
2012-6-4,92,82,75,-100,-100,-100,0,0,100,30.00,29.80,23,12,30,0.00
2012-6-5,90,79,72,-100,-100,-100,0,0,100,29.93,29.78,31,10,41,0.00
2012-6-6,85,77,71,-100,-100,-100,0,0,100,29.99,29.85,23,11,31,0.00
2012-6-7,77,75,72,-100,-100,-100,0,0,100,30.02,29.96,26,7,31,0.00
2012-6-8,78,75,72,-100,-100,-100,0,0,100,30.07,29.97,26,13,31,0.00
2012-6-9,79,77,73,-100,-100,-100,0,0,100,30.11,30.02,17,10,24,0.00
2012-6-10,82,78,74,-100,-100,-100,0,0,100,30.19,30.06,13,-1,20,0.00
2012-6-11,84,79,73,-100,-100,-100,0,0,100,30.19,30.10,17,8,24,0.00
2012-6-12,88,78,72,-100,-100,-100,0,0,100,30.17,29.98,28,8,36,0.00
2012-6-13,87,80,75,-100,-100,-100,0,0,100,30.01,29.91,13,8,16,0.00
2012-6-14,80,79,77,-100,-100,-100,0,0,100,30.10,29.96,20,-2,23,0.00
2012-6-15,79,78,76,-100,-100,-100,0,0,100,30.15,30.05,24,18,29,0.00
2012-6-16,78,77,75,-100,-100,-100,0,0,100,30.21,30.10,24,19,29,0.00
2012-6-17,78,76,76,-100,-100,-100,0,0,100,30.18,30.07,19,13,22,0.00
2012-6-18,79,77,74,-100,-100,-100,0,0,100,30.16,30.06,12,8,16,0.00
2012-6-19,81,78,74,-100,-100,-100,0,0,100,30.20,30.12,17,-13,23,0.00
2012-6-20,81,79,78,-100,-100,-100,0,0,100,30.17,30.11,20,14,25,0.00
2012-6-21,81,79,78,-100,-100,-100,0,0,100,30.12,30.01,16,10,19,0.00
2012-6-22,83,79,76,-100,-100,-100,0,0,100,30.02,29.94,14,0,17,0.00
2012-6-23,84,80,77,-100,-100,-100,0,0,100,30.04,29.92,14,-2,17,0.00
2012-6-24,82,78,73,-100,-100,-100,0,0,100,30.04,29.91,20,8,27,0.00
2012-6-25,83,78,75,-100,-100,-100,0,0,100,29.91,29.72,23,11,43,0.00
2012-6-26,83,78,74,-100,-100,-100,0,0,100,29.76,29.64,32,12,40,0.00
2012-6-27,80,77,73,-100,-100,-100,0,0,100,30.07,29.72,32,19,39,0.00
2012-6-28,86,77,71,-100,-100,-100,0,0,100,30.15,30.04,10,-2,14,0.00
2012-6-29,92,82,74,-100,-100,-100,0,0,100,30.09,29.94,19,10,23,0.00
2012-6-30,93,86,77,-100,-100,-100,0,0,100,30.02,29.93,15,11,19,0.00
2012-7-1,92,85,77,-100,-100,-100,0,0,100,30.12,29.98,15,9,18,0.00
2012-7-2,84,80,74,-100,-100,-100,0,0,100,30.17,30.05,30,8,41,0.00
2012-7-3,90,81,76,-100,-100,-100,0,0,100,30.11,30.02,13,-9,17,0.00
2012-7-4,91,82,75,-100,-100,-100,0,0,100,30.14,30.03,21,7,28,0.00
2012-7-5,89,81,76,-100,-100,-100,0,0,100,30.12,30.00,13,8,19,0.00
2012-7-6,90,83,78,-100,-100,-100,0,0,100,30.10,30.02,15,8,20,0.00
2012-7-7,87,82,78,-100,-100,-100,0,0,100,30.15,30.07,16,7,19,0.00
2012-7-8,88,83,77,-100,-100,-100,0,0,100,30.16,30.04,12,7,17,0.00
2012-7-9,89,84,79,-100,-100,-100,0,0,100,30.10,29.99,14,8,22,0.00
2012-7-10,87,82,77,-100,-100,-100,0,0,100,30.09,30.01,14,6,23,0.00
2012-7-11,86,82,77,-100,-100,-100,0,0,100,30.12,30.05,12,7,19,0.00
2012-7-12,85,81,77,-100,-100,-100,0,0,100,30.12,30.05,12,7,16,0.00
2012-7-13,86,83,79,-100,-100,-100,0,0,100,30.16,30.08,17,8,25,0.00
2012-7-14,86,83,78,-100,-100,-100,0,0,100,30.22,30.12,13,1,18,0.00
2012-7-15,85,82,81,-100,-100,-100,0,0,100,30.21,30.11,13,7,17,0.00
2012-7-16,85,81,77,-100,-100,-100,0,0,100,30.15,30.02,11,-2,15,0.00
2012-7-17,85,80,77,-100,-100,-100,0,0,100,30.08,30.01,10,-9,15,0.00
2012-7-18,87,80,75,-100,-100,-100,0,0,100,30.14,30.04,16,7,20,0.00
2012-7-19,86,78,75,-100,-100,-100,0,0,100,30.21,30.13,24,0,36,0.00
2012-7-20,92,82,75,-100,-100,-100,0,0,100,30.18,30.09,17,8,23,0.00
2012-7-21,87,82,76,-100,-100,-100,0,0,100,30.18,30.11,13,6,18,0.00
2012-7-22,87,82,78,-100,-100,-100,0,0,100,30.26,30.16,16,-8,21,0.00
2012-7-23,85,82,78,-100,-100,-100,0,0,100,30.25,30.17,15,7,21,0.00
2012-7-24,90,82,75,-100,-100,-100,0,0,100,30.19,30.02,18,9,22,0.00
2012-7-25,89,83,78,-100,-100,-100,0,0,100,30.07,30.00,14,1,18,0.00
2012-7-26,91,83,79,-100,-100,-100,0,0,100,30.06,29.98,18,2,22,0.00
2012-7-27,93,84,78,-100,-100,-100,0,0,100,30.10,30.01,15,9,18,0.00
2012-7-28,90,82,75,-100,-100,-100,0,0,100,30.14,30.04,24,7,36,0.00
2012-7-29,89,82,78,-100,-100,-100,0,0,100,30.10,30.00,26,8,32,0.00
2012-7-30,88,79,73,-100,-100,-100,0,0,100,30.08,30.00,19,8,25,0.00
2012-7-31,89,79,74,-100,-100,-100,0,0,100,30.06,29.97,25,9,30,0.00
2012-8-1,88,81,77,-100,-100,-100,0,0,100,30.04,29.95,15,9,19,0.00
2012-8-2,90,81,76,-100,-100,-100,0,0,100,30.04,29.95,14,8,19,0.00
2012-8-3,87,80,75,-100,-100,-100,0,0,100,30.11,30.00,13,-65,20,0.00
2012-8-4,82,79,75,-100,-100,-100,0,0,100,30.18,30.08,21,-21,30,0.00
2012-8-5,82,78,73,-100,-100,-100,0,0,100,30.20,30.09,19,8,25,0.00
2012-8-6,85,81,78,-100,-100,-100,0,0,100,30.18,30.06,12,-30,18,0.00
2012-8-7,85,79,74,-100,-100,-100,0,0,100,30.10,30.04,17,6,25,0.00
2012-8-8,87,78,74,-100,-100,-100,0,0,100,30.10,30.04,20,6,27,0.00
2012-8-9,87,80,75,-100,-100,-100,0,0,100,30.09,29.97,19,6,25,0.00
2012-8-10,90,81,76,-100,-100,-100,0,0,100,30.03,29.97,16,8,23,0.00
2012-8-11,88,78,75,-100,-100,-100,0,0,100,30.06,29.96,17,6,22,0.00
2012-8-12,87,79,76,-100,-100,-100,0,0,100,30.08,30.01,14,7,21,0.00
2012-8-13,88,80,76,-100,-100,-100,0,0,100,30.12,30.02,13,-1,23,0.00
2012-8-14,86,80,76,-100,-100,-100,0,0,100,30.10,29.99,14,6,18,0.00
2012-8-15,87,80,77,-100,-100,-100,0,0,100,30.10,30.01,12,-2,15,0.00
2012-8-16,88,80,72,-100,-100,-100,0,0,100,30.14,30.01,23,7,30,0.00
2012-8-17,86,77,71,-100,-100,-100,0,0,100,30.06,29.98,32,6,40,0.00
2012-8-18,89,81,76,-100,-100,-100,0,0,100,30.01,29.91,13,7,18,0.00
2012-8-19,86,78,73,-100,-100,-100,0,0,100,30.01,29.94,29,9,38,0.00
2012-8-20,83,76,73,-100,-100,-100,0,0,100,30.07,29.92,24,6,33,0.00
2012-8-21,79,73,71,-100,-100,-100,0,0,100,30.11,30.00,14,-3,17,0.00
2012-8-22,79,75,72,-100,-100,-100,0,0,100,30.14,30.07,10,-2,12,0.00
2012-8-23,82,76,72,-100,-100,-100,0,0,100,30.16,30.08,19,6,25,0.00
2012-8-24,78,73,67,-100,-100,-100,0,0,100,30.16,30.08,13,8,16,0.00
2012-8-25,78,78,76,-100,-100,-100,0,0,100,30.16,30.08,19,12,22,0.00
2012-8-26,80,79,78,-100,-100,-100,0,0,100,30.14,30.04,27,19,32,0.00
2012-8-27,81,78,75,-100,-100,-100,0,0,100,30.05,29.95,24,11,28,0.00
2012-8-28,84,80,75,-100,-100,-100,0,0,100,30.07,29.96,20,8,26,0.00
2012-8-29,83,78,74,-100,-100,-100,0,0,100,30.07,29.98,15,-10,26,0.00
2012-8-30,83,81,77,-100,-100,-100,0,0,100,30.20,30.03,13,6,18,0.00
2012-8-31,83,81,79,-100,-100,-100,0,0,100,30.28,30.19,11,-23,13,0.00
2012-9-1,85,81,78,-100,-100,-100,0,0,100,30.25,30.14,9,-82,12,0.00
2012-9-2,86,81,76,-100,-100,-100,0,0,100,30.15,30.04,10,5,14,0.00
2012-9-3,86,80,74,-100,-100,-100,0,0,100,30.13,30.04,14,6,20,0.00
2012-9-4,86,80,75,-100,-100,-100,0,0,100,30.08,29.98,14,6,19,0.00
2012-9-5,84,79,75,-100,-100,-100,0,0,100,30.05,29.97,11,-16,16,0.00
2012-9-6,85,80,76,-100,-100,-100,0,0,100,30.08,29.99,14,7,19,0.00
2012-9-7,86,80,77,-100,-100,-100,0,0,100,30.05,29.95,18,7,22,0.00
2012-9-8,89,80,75,-100,-100,-100,0,0,100,29.99,29.87,25,7,33,0.00
2012-9-9,86,81,77,-100,-100,-100,0,0,100,30.01,29.85,17,7,20,0.00
2012-9-10,80,79,77,-100,-100,-100,0,0,100,30.13,29.98,21,15,25,0.00
2012-9-11,82,80,79,-100,-100,-100,0,0,100,30.25,30.13,22,16,27,0.00
2012-9-12,82,79,75,-100,-100,-100,0,0,100,30.27,30.18,27,18,32,0.00
2012-9-13,80,77,71,-100,-100,-100,0,0,100,30.26,30.16,22,12,28,0.00
2012-9-14,81,79,76,-100,-100,-100,0,0,100,30.19,30.12,20,13,23,0.00
2012-9-15,80,79,77,-100,-100,-100,0,0,100,30.19,30.12,18,13,21,0.00
2012-9-16,83,80,77,-100,-100,-100,0,0,100,30.16,30.07,12,6,16,0.00
2012-9-17,84,80,76,-100,-100,-100,0,0,100,30.11,29.97,15,-14,21,0.00
2012-9-18,81,77,73,-100,-100,-100,0,0,100,29.99,29.88,26,10,38,0.00
2012-9-19,82,78,75,-100,-100,-100,0,0,100,30.11,29.94,11,-1,14,0.00
2012-9-20,80,78,76,-100,-100,-100,0,0,100,30.12,30.06,22,10,26,0.00
2012-9-21,80,78,75,-100,-100,-100,0,0,100,30.10,30.03,17,10,19,0.00
2012-9-22,81,78,75,-100,-100,-100,0,0,100,30.11,30.04,15,-8,17,0.00
2012-9-23,85,77,73,-100,-100,-100,0,0,100,30.15,30.07,13,7,15,0.00
2012-9-24,79,75,66,-100,-100,-100,0,0,100,30.18,30.10,22,10,25,0.00
2012-9-25,79,78,78,-100,-100,-100,0,0,100,30.22,30.12,23,19,28,0.00
2012-9-26,82,80,78,-100,-100,-100,0,0,100,30.21,30.14,17,12,20,0.00
2012-9-27,81,79,78,-100,-100,-100,0,0,100,30.22,30.13,21,11,24,0.00
2012-9-28,80,79,74,-100,-100,-100,0,0,100,30.16,30.06,16,9,18,0.00
2012-9-29,81,77,73,-100,-100,-100,0,0,100,30.09,29.93,9,-2,13,0.00
2012-9-30,84,78,74,-100,-100,-100,0,0,100,29.97,29.83,13,5,21,0.00
2012-10-1,85,78,73,-100,-100,-100,0,0,100,29.89,29.78,16,7,25,0.00
2012-10-2,87,80,76,-100,-100,-100,0,0,100,30.07,29.83,15,8,22,0.00
2012-10-3,81,77,75,-100,-100,-100,0,0,100,30.24,30.07,11,4,17,0.00
2012-10-4,81,76,73,-100,-100,-100,0,0,100,30.27,30.20,12,-79,15,0.00
2012-10-5,81,79,76,-100,-100,-100,0,0,100,30.24,30.06,15,8,17,0.00
2012-10-6,81,78,75,-100,-100,-100,0,0,100,30.08,29.96,16,-64,19,0.00
2012-10-7,83,79,74,-100,-100,-100,0,0,100,30.06,29.99,11,-2,18,0.00
2012-10-8,83,78,71,-100,-100,-100,0,0,100,30.11,29.99,17,-23,20,0.00
2012-10-9,70,66,63,-100,-100,-100,0,0,100,30.17,30.08,17,10,22,0.00
2012-10-10,75,68,62,-100,-100,-100,0,0,100,30.21,30.11,13,-1,17,0.00
2012-10-11,75,72,66,-100,-100,-100,0,0,100,30.28,30.17,16,9,21,0.00
2012-10-12,77,73,68,-100,-100,-100,0,0,100,30.29,30.20,14,7,17,0.00
2012-10-13,79,77,74,-100,-100,-100,0,0,100,30.32,30.22,23,16,28,0.00
2012-10-14,81,78,73,-100,-100,-100,0,0,100,30.25,30.08,23,10,26,0.00
2012-10-15,83,78,73,-100,-100,-100,0,0,100,30.09,29.88,11,5,15,0.00
2012-10-16,76,71,65,-100,-100,-100,0,0,100,29.97,29.91,19,11,23,0.00
2012-10-17,76,73,68,-100,-100,-100,0,0,100,29.99,29.90,14,7,17,0.00
2012-10-18,80,74,69,-100,-100,-100,0,0,100,29.95,29.85,11,6,17,0.00
2012-10-19,76,73,70,-100,-100,-100,0,0,100,29.94,29.85,12,-14,15,0.00
2012-10-20,78,71,63,-100,-100,-100,0,0,100,30.02,29.91,13,7,15,0.00
2012-10-21,73,68,59,-100,-100,-100,0,0,100,30.16,30.02,16,9,19,0.00
2012-10-22,74,73,72,-100,-100,-100,0,0,100,30.23,30.13,21,16,26,0.00
2012-10-23,77,76,73,-100,-100,-100,0,0,100,30.19,30.11,17,13,20,0.00
2012-10-24,78,77,75,-100,-100,-100,0,0,100,30.16,30.07,15,11,18,0.00
2012-10-25,79,78,76,-100,-100,-100,0,0,100,30.07,29.97,21,15,25,0.00
2012-10-26,78,75,73,-100,-100,-100,0,0,100,29.98,29.75,31,22,38,0.00
2012-10-27,73,70,68,-100,-100,-100,0,0,100,29.76,29.62,30,17,38,0.00
2012-10-28,73,66,60,-100,-100,-100,0,0,100,29.80,29.68,22,14,30,0.00
2012-10-29,63,57,50,-100,-100,-100,0,0,100,29.86,29.72,26,17,31,0.00
2012-10-30,63,55,48,-100,-100,-100,0,0,100,29.94,29.78,26,19,34,0.00
2012-10-31,69,60,52,-100,-100,-100,0,0,100,30.04,29.92,22,15,31,0.00
2012-11-1,71,64,59,-100,-100,-100,0,0,100,30.06,29.95,17,10,22,0.00
2012-11-2,75,63,53,-100,-100,-100,0,0,100,30.14,30.02,13,7,18,0.00
2012-11-3,75,66,61,-100,-100,-100,0,0,100,30.18,30.08,13,7,17,0.00
2012-11-4,80,70,61,-100,-100,-100,0,0,100,30.14,30.02,15,7,17,0.00
2012-11-5,69,65,62,-100,-100,-100,0,0,100,30.07,30.00,17,11,21,0.00
2012-11-6,66,63,57,-100,-100,-100,0,0,100,30.02,29.87,18,8,22,0.00
2012-11-7,58,53,45,-100,-100,-100,0,0,100,30.05,29.93,17,9,30,0.00
2012-11-8,62,54,46,-100,-100,-100,0,0,100,30.23,30.05,15,8,18,0.00
2012-11-9,65,58,50,-100,-100,-100,0,0,100,30.35,30.23,11,6,13,0.00
2012-11-10,68,62,54,-100,-100,-100,0,0,100,30.41,30.31,15,9,18,0.00
2012-11-11,74,70,67,-100,-100,-100,0,0,100,30.41,30.34,14,8,16,0.00
2012-11-12,74,70,66,-100,-100,-100,0,0,100,30.34,30.25,11,-37,16,0.00
2012-11-13,74,68,65,-100,-100,-100,0,0,100,30.27,30.18,21,-129,25,0.00
2012-11-14,66,62,60,-100,-100,-100,0,0,100,30.31,30.22,26,20,30,0.00
2012-11-15,62,56,52,-100,-100,-100,0,0,100,30.27,30.17,18,11,23,0.00
2012-11-16,58,54,51,-100,-100,-100,0,0,100,30.29,30.23,20,12,26,0.00
2012-11-17,62,59,56,-100,-100,-100,0,0,100,30.30,30.22,26,20,33,0.00
2012-11-18,61,58,55,-100,-100,-100,0,0,100,30.31,30.22,19,14,24,0.00
2012-11-19,60,56,54,-100,-100,-100,0,0,100,30.26,30.15,17,11,22,0.00
2012-11-20,62,59,56,-100,-100,-100,0,0,100,30.19,30.08,14,8,16,0.00
2012-11-21,62,58,54,-100,-100,-100,0,0,100,30.16,30.09,18,8,23,0.00
2012-11-22,61,55,49,-100,-100,-100,0,0,100,30.25,30.14,25,9,29,0.00
2012-11-23,70,57,49,-100,-100,-100,0,0,100,30.27,30.10,11,6,13,0.00
2012-11-24,64,58,51,-100,-100,-100,0,0,100,30.16,30.06,15,8,21,0.00
2012-11-25,66,52,42,-100,-100,-100,0,0,100,30.25,30.15,11,-9,13,0.00
2012-11-26,61,56,48,-100,-100,-100,0,0,100,30.32,30.21,10,-24,12,0.00
2012-11-27,75,64,55,-100,-100,-100,0,0,100,30.25,30.13,20,-66,24,0.00
2012-11-28,60,56,53,-100,-100,-100,0,0,100,30.39,30.21,17,9,20,0.00
2012-11-29,61,59,53,-100,-100,-100,0,0,100,30.42,30.35,22,16,26,0.00
2012-11-30,66,62,59,-100,-100,-100,0,0,100,30.38,30.29,12,-7,15,0.00
2012-12-1,67,63,60,-100,-100,-100,0,0,100,30.38,30.29,13,-8,18,0.00
2012-12-2,67,63,59,-100,-100,-100,0,0,100,30.39,30.31,14,-24,17,0.00
2012-12-3,69,65,63,-100,-100,-100,0,0,100,30.39,30.30,11,-30,15,0.00
2012-12-4,68,64,60,-100,-100,-100,0,0,100,30.39,30.29,8,-101,9,0.00
2012-12-5,68,63,59,-100,-100,-100,0,0,100,30.30,30.16,12,-50,17,0.00
2012-12-6,67,63,62,-100,-100,-100,0,0,100,30.17,30.08,17,-5,22,0.00
2012-12-7,62,60,58,-100,-100,-100,0,0,100,30.11,30.03,18,-11,24,0.00
2012-12-8,61,60,58,-100,-100,-100,0,0,100,30.15,30.07,7,-32,9,0.00
2012-12-9,70,63,58,-100,-100,-100,0,0,100,30.17,30.07,11,-38,14,0.00
2012-12-10,78,66,60,-100,-100,-100,0,0,100,30.08,29.88,11,6,17,0.00
2012-12-11,74,68,64,-100,-100,-100,0,0,100,30.12,29.90,13,6,16,0.00
2012-12-12,64,60,57,-100,-100,-100,0,0,100,30.19,30.09,20,9,23,0.00
2012-12-13,63,53,49,-100,-100,-100,0,0,100,30.33,30.14,18,12,23,0.00
2012-12-14,59,54,50,-100,-100,-100,0,0,100,30.37,30.22,20,11,26,0.00
2012-12-15,62,59,55,-100,-100,-100,0,0,100,30.25,30.14,16,2,21,0.00
2012-12-16,69,61,55,-100,-100,-100,0,0,100,30.15,30.00,8,-80,12,0.00
2012-12-17,74,66,62,-100,-100,-100,0,0,100,30.03,29.84,15,7,23,0.00
2012-12-18,70,65,56,-100,-100,-100,0,0,100,30.10,29.89,17,9,22,0.00
2012-12-19,65,58,51,-100,-100,-100,0,0,100,30.20,30.09,9,-10,10,0.00
2012-12-20,73,66,59,-100,-100,-100,0,0,100,30.15,29.88,22,-7,31,0.00
2012-12-21,62,50,45,-100,-100,-100,0,0,100,30.21,29.93,26,20,34,0.00
2012-12-22,57,46,37,-100,-100,-100,0,0,100,30.32,30.21,18,11,24,0.00
2012-12-23,59,51,40,-100,-100,-100,0,0,100,30.33,30.20,9,4,10,0.00
2012-12-24,68,58,49,-100,-100,-100,0,0,100,30.22,30.01,14,-22,18,0.00
2012-12-25,71,63,57,-100,-100,-100,0,0,100,30.08,29.95,9,6,14,0.00
2012-12-26,70,62,43,-100,-100,-100,0,0,100,30.02,29.72,28,16,35,0.00
2012-12-27,58,46,38,-100,-100,-100,0,0,100,30.15,30.02,20,10,23,0.00
2012-12-28,61,52,43,-100,-100,-100,0,0,100,30.20,29.96,9,-3,12,0.00
2012-12-29,71,61,45,-100,-100,-100,0,0,100,30.22,29.83,24,14,30,0.00
2012-12-30,53,44,37,-100,-100,-100,0,0,100,30.46,30.21,19,13,30,0.00
2012-12-31,58,52,42,-100,-100,-100,0,0,100,30.46,30.28,15,-21,17,0.00
2013-1-1,73,62,53,-100,-100,-100,0,0,100,30.30,30.06,17,0,20,0.00